Simultaneous Nadir Overpasses (SNOs) Predictions

Prediction of SNOs near US between AQUA and NPP Satellite Orbit:

Table of predicted SNOs near US for the next 10.0 days since TLE Epoch: 3/2/2013
Index Date (AQUA) Time (AQUA) AQUA Lat,Lon Date (NPP) Time (NPP) NPP Lat,Lon Distance(km) Time Diff (sec)
1 03/05/2013 06:32:02 41.51, -66.76 03/05/2013 06:30:38 41.91, -68.89 182.31 84
2 03/05/2013 08:08:34 49.91, -88.37 03/05/2013 08:09:41 50.39, -90.89 187.57 67
3 03/05/2013 09:47:27 49.91,-113.09 03/05/2013 09:51:08 50.56,-116.19 231.97 221
4 03/07/2013 19:06:45 49.96, -92.60 03/07/2013 19:00:01 49.65, -94.50 140.68 404
5 03/07/2013 20:45:38 49.95,-117.32 03/07/2013 20:41:29 49.53,-119.83 185.99 249




NCC Satellite Simultaneous Nadir Overpasses (SNOs) Prediction Service
